Flag for Angola Weather past 2 weeks in Lubango, Angola

Now
73 °F

Mild.


Feels Like: 77 °F
Forecast: 54 / 72 °F
Wind: 8 mph from Southwest

Location: Ondangwa

Current Time: Sep 18, 2014 at 12:57:21 AM

Latest Report: Sep 18, 2014 at 12:00 AM


Visibility: N/A

Pressure: 29.95 "Hg

Humidity: 36%

Dew point: 45 °F

Location of LubangoLocation

Historic Weather in Lubango — Graph

°F

Lubango temperature yesterday

Maximum temperature yesterday: 99 °F (at 2:00 PM)
Minimum temperature yesterday: 64 °F (at 5:00 AM)
Average temperature yesterday: 82 °F

Past Weeks' High & Low Weather Summary

 TemperatureHumidityPressure
High100 °F (Sep 15, 2:00 PM)69% (Sep 14, 6:00 AM)30.21 "Hg (Sep 14, 6:00 AM)
Low52 °F (Sep 4, 5:00 AM)7% (Sep 3, 4:00 PM)29.83 "Hg (Sep 17, 3:00 PM)
Average78 °F20%30.03 "Hg
* Reported Sep 3 10:00 AM — Sep 17 11:00 PM, Lubango, Weather by CustomWeather, © 2014

Note: Actual official high and low records may vary slightly from our data, if they occured in-between our weather recording intervals... More about our weather records

Advertising

Lubango weather history for previous 24 hours

 ConditionsComfort  
Time TempWeatherWind HumidityBarometerVisibility
11:00 PM
Sep 17
75 °FMild.7 mph34%29.95 "HgN/A
10:00 PM79 °FPleasantly warm.8 mph30%29.92 "HgN/A
9:00 PM82 °FPleasantly warm.8 mph26%29.92 "HgN/A
8:00 PM86 °FPleasantly warm.3 mph14%29.89 "HgN/A
7:00 PM86 °FPleasantly warm.2 mph14%29.86 "HgN/A
6:00 PM91 °FHot.3 mph12%29.83 "HgN/A
5:00 PM95 °FExtremely hot.6 mph11%29.83 "HgN/A
4:00 PM99 °FExtremely hot.3 mph10%29.83 "HgN/A
3:00 PM99 °FExtremely hot.1 mph10%29.83 "HgN/A
2:00 PM99 °FExtremely hot.2 mph10%29.86 "HgN/A
12:00 PM97 °FSunny.10 mph12%29.92 "Hg10 mi
11:00 AM95 °FExtremely hot.10 mph13%29.95 "HgN/A
10:00 AM88 °FSunny.No wind17%29.98 "Hg10 mi
9:00 AM81 °FSunny.1 mph23%29.98 "Hg10 mi
8:00 AM72 °FSunny.6 mph36%29.98 "Hg10 mi
7:00 AM66 °FSunny.1 mph46%29.98 "Hg10 mi
6:00 AM64 °FClear.3 mph46%29.95 "Hg10 mi
5:00 AM64 °FClear.1 mph46%29.95 "Hg10 mi
3:00 AM70 °FMild.5 mph40%29.92 "HgN/A
2:00 AM73 °FMild.6 mph33%29.92 "HgN/A
1:00 AM75 °FMild.3 mph21%29.92 "HgN/A
12:00 AM73 °FMild.5 mph22%29.92 "HgN/A
Weather by CustomWeather, © 2014

See weather overviewHow to use our weather pages